Granada, Spain

7:35 PM CEST on August 28, 2016 (GMT +0200)
Granada

Weather History for LEGR - December, 2013

Change the Weather History Date:

Monday, December 30, 2013

  Actual Average Record
Temperature  
Mean Temperature 40 °F -  
Max Temperature 55 °F 54 °F 63 °F (2015)
Min Temperature 24 °F 31 °F 19 °F (2014)
Degree Days  
Heating Degree Days 26    
Moisture  
Dew Point 30 °F    
Average Humidity 75    
Maximum Humidity 100    
Minimum Humidity 21    
Precipitation  
Precipitation 0.00 in - - ()
Sea Level Pressure  
Sea Level Pressure 30.41 in    
Wind  
Wind Speed 1 mph ()    
Max Wind Speed 5 mph    
Max Gust Speed -    
Visibility 16.4 miles    
Events      
Averages and records for this station are not official NWS values.
T = Trace of Precipitation, MM = Missing Value Source: Averaged Metar Reports

Daily Weather History Graph

Daily Weather History Graph

Search for Another Location

Airport or City:

Trip Planner

Search our weather history database for the weather conditions in past years. The results will help you decide how hot, cold, wet, or windy it might be!

Date:

Astronomy

Dec. 30, 2013 Rise Set
Actual Time 8:28 AM CET 6:07 PM CET
Civil Twilight 7:59 AM CET 6:36 PM CET
Nautical Twilight 7:26 AM CET 7:08 PM CET
Astronomical Twilight 6:55 AM CET 7:40 PM CET
Moon 6:04 AM CET (12/30) 4:25 PM CET (12/30)
Length of Visible Light 10h 36m
Length of Day
9h 38m
Waning Crescent, 6% of the Moon is Illuminated
Dec 30
Waning Crescent
Jan 1
New
Jan 8
First Quarter
Jan 16
Full
Jan 24
Last Quarter

Hourly Weather History & Observations

Time (CET) Temp. Windchill Dew Point Humidity Pressure Visibility Wind Dir Wind Speed Gust Speed Precip Events Conditions
12:00 AM 33 °F - 29 °F 79% 30.53 in 19 mi Calm Calm - -  
1:00 AM 31 °F - 29 °F 90% 30.54 in 19 mi NW 1.2 mph - -  
2:00 AM 30 °F - 28 °F 89% 30.53 in 16 mi Calm Calm - -  
3:00 AM 28 °F - 27 °F 92% 30.54 in 15 mi SSW 2.3 mph - -  
4:00 AM 28 °F - 26 °F 91% 30.54 in 17 mi Calm Calm - -  
5:00 AM 26 °F - 25 °F 94% 30.54 in 15 mi SE 1.2 mph - -  
6:00 AM 27 °F - 26 °F 93% 30.53 in 19 mi WSW 1.2 mph - -  
6:00 AM 26.6 °F - 26.6 °F 100% 30.39 in - Variable 1.2 mph - N/A   Clear
6:30 AM 26.6 °F - 26.6 °F 100% 30.39 in - Calm Calm - N/A   Clear
7:00 AM 26 °F - 25 °F 92% 30.53 in 19 mi Calm Calm - -  
7:00 AM 26.6 °F - 24.8 °F 93% 30.39 in - Calm Calm - N/A   Clear
7:30 AM 26.6 °F - 24.8 °F 93% 30.42 in - Variable 1.2 mph - N/A   Clear
8:00 AM 25 °F - 24 °F 93% 30.55 in 19 mi Calm Calm - -  
8:00 AM 24.8 °F - 24.8 °F 100% 30.42 in - Calm Calm - N/A   Clear
8:30 AM 24.8 °F - 24.8 °F 100% 30.42 in - Variable 1.2 mph - N/A   Clear
9:00 AM 28 °F - 27 °F 93% 30.54 in 14 mi SW 2.3 mph - -  
9:00 AM 26.6 °F - 26.6 °F 100% 30.42 in - Variable 2.3 mph - N/A   Clear
9:30 AM 30.2 °F - 28.4 °F 93% 30.42 in - Variable 1.2 mph - N/A   Clear
10:00 AM 36 °F - 28 °F 65% 30.51 in 19 mi Calm Calm - -   Clear
10:00 AM 32.0 °F - 30.2 °F 93% 30.42 in - Calm Calm - N/A   Clear
10:30 AM 33.8 °F - 30.2 °F 87% 30.42 in - Calm Calm - N/A   Clear
11:00 AM 38 °F - 30 °F 65% 30.52 in 14 mi Calm Calm - -  
11:00 AM 35.6 °F - 30.2 °F 81% 30.45 in - Calm Calm - N/A   Clear
11:30 AM 35.6 °F - 32.0 °F 87% 30.45 in - Calm Calm - N/A   Clear
12:00 PM 40 °F - 31 °F 61% 30.51 in 14 mi Calm Calm - -  
12:00 PM 39.2 °F - 32.0 °F 75% 30.45 in - Variable 1.2 mph - N/A   Clear
12:30 PM 41.0 °F - 33.8 °F 76% 30.42 in - Calm Calm - N/A   Clear
1:00 PM 46 °F - 32 °F 46% 30.44 in 19 mi Calm Calm - -   Clear
1:00 PM 44.6 °F - 33.8 °F 66% 30.39 in - Calm Calm - N/A   Clear
1:30 PM 44.6 °F - 33.8 °F 66% 30.39 in - Calm Calm - N/A   Clear
2:00 PM 48 °F - 33 °F 44% 30.40 in 19 mi NNW 2.3 mph - -   Clear
2:00 PM 46.4 °F - 33.8 °F 62% 30.39 in - Variable 1.2 mph - N/A   Clear
2:30 PM 48.2 °F - 33.8 °F 58% 30.36 in - Variable 1.2 mph - N/A   Clear
3:00 PM 52 °F - 30 °F 31% 30.36 in 19 mi Calm Calm - -  
3:00 PM 50.0 °F - 30.2 °F 47% 30.36 in - Calm Calm - N/A   Clear
3:30 PM 51.8 °F - 32.0 °F 47% 30.33 in - Calm Calm - N/A   Clear
4:00 PM 55 °F - 30 °F 26% 30.33 in 19 mi Calm Calm - -   Clear
4:00 PM 51.8 °F - 30.2 °F 44% 30.33 in - Calm Calm - N/A   Clear
4:30 PM 51.8 °F - 28.4 °F 41% 30.33 in - Variable 1.2 mph - N/A   Clear
5:00 PM 54 °F - 26 °F 21% 30.34 in 19 mi Calm Calm - -  
5:00 PM 51.8 °F - 28.4 °F 41% 30.33 in - Calm Calm - N/A   Clear
5:30 PM 51.8 °F - 28.4 °F 41% 30.33 in - Calm Calm - N/A   Clear
6:00 PM 48 °F - 32 °F 42% 30.36 in 11 mi SSE 2.3 mph - -  
6:00 PM 48.2 °F - 30.2 °F 50% 30.33 in - Calm Calm - N/A   Clear
6:30 PM 41.0 °F 38.0 °F 33.8 °F 76% 30.33 in - South 4.6 mph - N/A   Clear
7:00 PM 39 °F - 33 °F 71% 30.39 in 19 mi South 1.2 mph - -   Clear
7:00 PM 39.2 °F - 33.8 °F 81% 30.33 in - Variable 2.3 mph - N/A   Clear
7:30 PM 39.2 °F - 33.8 °F 81% 30.33 in - Variable 1.2 mph - N/A   Clear
8:00 PM 36 °F - 32 °F 78% 30.41 in 16 mi Calm Calm - -  
8:00 PM 37.4 °F - 33.8 °F 87% 30.33 in - Calm Calm - N/A   Clear
8:30 PM 35.6 °F - 32.0 °F 87% 30.33 in - Variable 2.3 mph - N/A   Clear
9:00 PM 34 °F - 30 °F 79% 30.43 in 12 mi Calm Calm - -  
9:00 PM 33.8 °F - 30.2 °F 87% 30.33 in - Calm Calm - N/A   Clear
9:30 PM 33.8 °F - 32.0 °F 93% 30.33 in - Calm Calm - N/A   Clear
10:00 PM 33 °F - 30 °F 84% 30.44 in 16 mi Calm Calm - -   Clear
10:00 PM 33.8 °F - 30.2 °F 87% 30.33 in - Calm Calm - N/A   Clear
10:30 PM 33.8 °F - 32.0 °F 93% 30.33 in - Variable 1.2 mph - N/A   Clear
11:00 PM 32 °F - 29 °F 84% 30.44 in 6 mi Calm Calm - -  
11:00 PM 33.8 °F - 30.2 °F 87% 30.33 in - Calm Calm - N/A   Clear